| time (UTC) | temp F | wind direction | speed knots | gust knots | rain 1hr in | rain 24hr in | rain mn in | humidity % | barometer mb |
| 20260503225727 | 68 | 32 | 2.6 | 14.8 | 0.00 | 0.00 | 0.00 | 59 | 1009.5 |
| 20260503225227 | 68 | 323 | 2.6 | 16.5 | 0.00 | 0.00 | 0.00 | 58 | 1009.7 |
| 20260503224727 | 68 | 298 | 7.0 | 16.5 | 0.00 | 0.00 | 0.00 | 58 | 1009.6 |
| 20260503224227 | 68 | 275 | 8.7 | 25.2 | 0.00 | 0.00 | 0.00 | 57 | 1009.7 |
| 20260503223226 | 69 | 68 | 16.5 | 20.9 | 0.00 | 0.00 | 0.00 | 56 | 1009.8 |
| 20260503222226 | 70 | 293 | 5.2 | 19.1 | 0.00 | 0.00 | 0.00 | 53 | 1009.9 |
| 20260503221726 | 71 | 8 | 16.5 | 19.1 | 0.00 | 0.00 | 0.00 | 52 | 1009.9 |
| 20260503221226 | 72 | 314 | 8.7 | 14.8 | 0.00 | 0.00 | 0.00 | 52 | 1009.9 |
| 20260503220726 | 72 | 359 | 5.2 | 19.1 | 0.00 | 0.00 | 0.00 | 54 | 1009.9 |
| 20260503220226 | 72 | 39 | 8.7 | 19.1 | 0.00 | 0.00 | 0.00 | 51 | 1010.0 |
| 20260503215225 | 72 | 15 | 11.3 | 17.4 | 0.00 | 0.00 | 0.00 | 52 | 1010.1 |
| 20260503214725 | 73 | 37 | 4.3 | 17.4 | 0.00 | 0.00 | 0.00 | 52 | 1010.2 |
| 20260503214225 | 73 | 359 | 7.0 | 16.5 | 0.00 | 0.00 | 0.00 | 51 | 1010.1 |
| 20260503213726 | 73 | 326 | 4.3 | 19.1 | 0.00 | 0.00 | 0.00 | 53 | 1010.2 |
| 20260503213225 | 73 | 14 | 12.2 | 19.1 | 0.00 | 0.00 | 0.00 | 52 | 1010.2 |
| 20260503212726 | 73 | 325 | 7.0 | 10.4 | 0.00 | 0.00 | 0.00 | 53 | 1010.2 |
| 20260503212226 | 74 | 331 | 2.6 | 10.4 | 0.00 | 0.00 | 0.00 | 52 | 1010.2 |
| 20260503211726 | 74 | 342 | 2.6 | 12.2 | 0.00 | 0.00 | 0.00 | 51 | 1010.2 |
| 20260503211225 | 74 | 296 | 5.2 | 19.1 | 0.00 | 0.00 | 0.00 | 51 | 1010.2 |
| 20260503210725 | 74 | 4 | 8.7 | 19.1 | 0.00 | 0.00 | 0.00 | 53 | 1010.3 |
| 20260503210226 | 74 | 299 | 4.3 | 19.1 | 0.00 | 0.00 | 0.00 | 53 | 1010.2 |
| 20260503205725 | 75 | 299 | 4.3 | 19.1 | 0.00 | 0.00 | 0.00 | 51 | 1010.3 |
| 20260503205225 | 75 | 296 | 7.0 | 8.7 | 0.00 | 0.00 | 0.00 | 51 | 1010.3 |
| 20260503204725 | 77 | 294 | 4.3 | 8.7 | 0.00 | 0.00 | 0.00 | 49 | 1010.3 |
| 20260503203724 | 81 | 290 | 4.3 | 8.7 | 0.00 | 0.00 | 0.00 | 44 | 1010.3 |
| 20260503202725 | 85 | 304 | 5.2 | 8.7 | 0.00 | 0.00 | 0.00 | 38 | 1010.3 |
| 20260503202224 | 86 | 36 | 2.6 | 8.7 | 0.00 | 0.00 | 0.00 | 35 | 1010.3 |
| 20260503201224 | 86 | 346 | 2.6 | 4.3 | 0.00 | 0.00 | 0.00 | 36 | 1010.5 |
| 20260503200724 | 85 | 135 | 1.7 | 7.8 | 0.00 | 0.00 | 0.00 | 38 | 1010.5 |
| 20260503200224 | 84 | 18 | 2.6 | 10.4 | 0.00 | 0.00 | 0.00 | 38 | 1010.6 |
| 20260503195725 | 84 | 359 | 4.3 | 10.4 | 0.00 | 0.00 | 0.00 | 37 | 1010.6 |
| 20260503194724 | 84 | 15 | 2.6 | 7.8 | 0.00 | 0.00 | 0.00 | 36 | 1010.9 |
| 20260503193724 | 84 | 319 | 5.2 | 6.1 | 0.00 | 0.00 | 0.00 | 39 | 1010.9 |
| 20260503192724 | 83 | 347 | 7.0 | 12.2 | 0.00 | 0.00 | 0.00 | 39 | 1011.0 |
| 20260503192223 | 83 | 14 | 4.3 | 12.2 | 0.00 | 0.00 | 0.00 | 40 | 1011.2 |
| 20260503191723 | 83 | 51 | 2.6 | 7.8 | 0.00 | 0.00 | 0.00 | 41 | 1011.1 |
| 20260503190723 | 82 | 316 | 2.6 | 12.2 | 0.00 | 0.00 | 0.00 | 40 | 1011.3 |
| 20260503190224 | 81 | 344 | 9.6 | 12.2 | 0.00 | 0.00 | 0.00 | 41 | 1011.3 |
| 20260503185723 | 81 | 316 | 2.6 | 4.3 | 0.00 | 0.00 | 0.00 | 40 | 1011.4 |
| 20260503185223 | 81 | 317 | 4.3 | 6.1 | 0.00 | 0.00 | 0.00 | 41 | 1011.4 |
| 20260503184723 | 80 | 352 | 4.3 | 10.4 | 0.00 | 0.00 | 0.00 | 41 | 1011.5 |
| 20260503184223 | 80 | 338 | 4.3 | 10.4 | 0.00 | 0.00 | 0.00 | 42 | 1011.5 |
| 20260503183223 | 81 | 32 | 2.6 | 7.8 | 0.00 | 0.00 | 0.00 | 43 | 1011.6 |
| 20260503182723 | 80 | 22 | 2.6 | 4.3 | 0.00 | 0.00 | 0.00 | 43 | 1011.5 |
| 20260503182222 | 80 | 123 | 0.0 | 2.6 | 0.00 | 0.00 | 0.00 | 43 | 1011.6 |
| 20260503181722 | 79 | 36 | 1.7 | 6.1 | 0.00 | 0.00 | 0.00 | 44 | 1011.6 |
| 20260503180723 | 79 | 15 | 2.6 | 8.7 | 0.00 | 0.00 | 0.00 | 43 | 1011.6 |
| 20260503175722 | 79 | 44 | 4.3 | 4.3 | 0.00 | 0.00 | 0.00 | 44 | 1011.6 |
| 20260503175223 | 78 | 169 | 0.0 | 6.1 | 0.00 | 0.00 | 0.00 | 46 | 1011.5 |
| 20260503174722 | 78 | 357 | 4.3 | 6.1 | 0.00 | 0.00 | 0.00 | 44 | 1011.6 |
| 20260503174222 | 78 | 334 | 1.7 | 6.1 | 0.00 | 0.00 | 0.00 | 45 | 1011.5 |
| 20260503173722 | 77 | 66 | 2.6 | 6.1 | 0.00 | 0.00 | 0.00 | 45 | 1011.6 |
| 20260503173222 | 78 | 66 | 2.6 | 6.1 | 0.00 | 0.00 | 0.00 | 45 | 1011.6 |
| 20260503172722 | 78 | 44 | 2.6 | 7.8 | 0.00 | 0.00 | 0.00 | 43 | 1011.5 |
| 20260503172222 | 78 | 7 | 5.2 | 7.8 | 0.00 | 0.00 | 0.00 | 45 | 1011.6 |
| 20260503171222 | 77 | 62 | 2.6 | 7.8 | 0.00 | 0.00 | 0.00 | 45 | 1011.6 |
| 20260503170723 | 77 | 305 | 2.6 | 7.8 | 0.00 | 0.00 | 0.00 | 44 | 1011.6 |
| 20260503170221 | 76 | 86 | 1.7 | 2.6 | 0.00 | 0.00 | 0.00 | 47 | 1011.5 |